This is the latest recevied weather packets stored in our database for station/object K1LVA. If no packets are shown the sender has not sent any weather packets the latest 10 day(s).
| Time | Temp. | Humidity | Pressure | Rain* | Wind** | Luminosity | Snow |
|---|---|---|---|---|---|---|---|
| 1778172824 | 21.11° C | 99% | 1010.5 hPa | 0 mm | - | 144 W/m² | - |
| 1778172520 | 20.56° C | 99% | 1010.5 hPa | 1.27 mm | - | 142 W/m² | - |
| 1778172217 | 20.56° C | 99% | 1010.6 hPa | 1.27 mm | - | 188 W/m² | - |
| 1778171914 | 20.56° C | 99% | 1010.8 hPa | 1.78 mm | - | 115 W/m² | - |
| 1778171612 | 20.56° C | 99% | 1010.6 hPa | 1.78 mm | - | 174 W/m² | - |
| 1778171308 | 20.56° C | 99% | 1010.8 hPa | 1.78 mm | - | 154 W/m² | - |
| 1778171004 | 20.56° C | 99% | 1010.5 hPa | 1.27 mm | - | 164 W/m² | - |
| 1778170701 | 20.56° C | 99% | 1010.6 hPa | 1.78 mm | - | 121 W/m² | - |
| 1778170397 | 20° C | 99% | 1010.8 hPa | 3.05 mm | - | 159 W/m² | - |
| 1778170094 | 20° C | 99% | 1010.5 hPa | 7.87 mm | - | 150 W/m² | - |
| 1778169790 | 20° C | 99% | 1010.6 hPa | 10.67 mm | - | 133 W/m² | - |
| 1778169486 | 20° C | 99% | 1010.7 hPa | 7.87 mm | - | 155 W/m² | - |
| 1778169182 | 20° C | 99% | 1010.8 hPa | 4.83 mm | - | 142 W/m² | - |
| 1778168879 | 20° C | 99% | 1010.8 hPa | 6.1 mm | - | 83 W/m² | - |
| 1778168576 | 20° C | 99% | 1010.6 hPa | 8.89 mm | - | 113 W/m² | - |
| 1778168273 | 20° C | 99% | 1010.8 hPa | 19.81 mm | - | 100 W/m² | - |
| 1778167969 | 19.44° C | 99% | 1010.8 hPa | 16.76 mm | - | 68 W/m² | - |
| 1778167666 | 19.44° C | 99% | 1010.8 hPa | 7.87 mm | - | 22 W/m² | - |
| 1778167363 | 19.44° C | 99% | 1010.2 hPa | 8.89 mm | - | 19 W/m² | - |
| 1778167058 | 20° C | 99% | 1010.3 hPa | 10.67 mm | - | 45 W/m² | - |
| 1778166755 | 20° C | 99% | 1010.2 hPa | 7.11 mm | - | 29 W/m² | - |
| 1778166452 | 20° C | 99% | 1010.2 hPa | 10.67 mm | - | 25 W/m² | - |
| 1778166149 | 20° C | 99% | 1010 hPa | 12.7 mm | - | 32 W/m² | - |
| 1778165844 | 20° C | 99% | 1010.3 hPa | 6.1 mm | - | 21 W/m² | - |
| 1778165541 | 20° C | 99% | 1010.1 hPa | 0 mm | - | 36 W/m² | - |
* Rain latest hour (hover to see other rain measurements)
** Current wind speed in m/s (hover to see current wind gust speed)